When you browse on this site, cookies collect data to enhance your experience and personalize the content and advertising you see.
Visit our Privacy Policy to learn more. By continuing to use the site, you agree to this use of cookies and data.
  • In Portugal
  • List of Countries
  • For 7 days
  • Water Temperature
  • Satellite Maps
  • Weather Map
  • Weather Widgets
  • user-avatar
    Login

    Hourly Weather Mosul

    Today, 21 March, Thursday

    Time Temperature Precipitation Wind Pressure Humidity
    00:00 +10°C° 0 mm 1 mps 734 mmHg 45%
    01:00 +10°C° 0 mm 1 mps 734 mmHg 46%
    02:00 +10°C° 0 mm 1 mps 733 mmHg 47%
    03:00 +9°C° 0 mm 1 mps 733 mmHg 46%
    04:00 +9°C° 0 mm 1 mps 733 mmHg 47%
    05:00 +9°C° 0 mm 1 mps 733 mmHg 48%
    06:00 +9°C° 0 mm 1 mps 733 mmHg 49%
    07:00 +10°C° 0 mm 1 mps 733 mmHg 45%
    08:00 +12°C° 0 mm 1 mps 734 mmHg 41%
    09:00 +14°C° 0 mm 1 mps 734 mmHg 37%
    10:00 +15°C° 0 mm 1 mps 734 mmHg 35%
    11:00 +16°C° 0 mm 1 mps 734 mmHg 32%
    12:00 +18°C° 0 mm 1 mps 734 mmHg 30%
    13:00 +19°C° 0 mm 1 mps 733 mmHg 29%
    14:00 +19°C° 0 mm 1 mps 733 mmHg 28%
    15:00 +20°C° 0 mm 1 mps 733 mmHg 27%
    16:00 +19°C° 0 mm 1 mps 733 mmHg 32%
    17:00 +18°C° 0 mm 1 mps 732 mmHg 37%
    18:00 +16°C° 0 mm 1 mps 732 mmHg 43%
    19:00 +16°C° 0 mm 1 mps 732 mmHg 44%
    20:00 +15°C° 0 mm 1 mps 733 mmHg 46%
    21:00 +14°C° 0 mm 1 mps 733 mmHg 47%
    22:00 +13°C° 0 mm 1 mps 733 mmHg 48%
    23:00 +13°C° 0 mm 1 mps 733 mmHg 50%

    Tomorrow, 22 March, Friday

    Time Temperature Precipitation Wind Pressure Humidity
    00:00 +12°C° 0 mm 1 mps 733 mmHg 51%
    01:00 +12°C° 0 mm 1 mps 733 mmHg 52%
    02:00 +12°C° 0 mm 1 mps 733 mmHg 54%
    03:00 +11°C° 0 mm 1 mps 733 mmHg 55%
    04:00 +11°C° 0 mm 1 mps 733 mmHg 56%
    05:00 +11°C° 0 mm 1 mps 733 mmHg 58%
    06:00 +10°C° 0 mm 1 mps 733 mmHg 59%
    07:00 +12°C° 0 mm 1 mps 733 mmHg 54%
    08:00 +14°C° 0 mm 1 mps 733 mmHg 48%
    09:00 +16°C° 0 mm 1 mps 734 mmHg 43%
    10:00 +18°C° 0 mm 1 mps 734 mmHg 40%
    11:00 +19°C° 0 mm 1 mps 733 mmHg 37%
    12:00 +20°C° 0 mm 1 mps 733 mmHg 34%
    13:00 +21°C° 0 mm 1 mps 733 mmHg 33%
    14:00 +21°C° 0 mm 2 mps 733 mmHg 31%
    15:00 +21°C° 0 mm 3 mps 732 mmHg 29%
    16:00 +20°C° 0 mm 2 mps 732 mmHg 33%
    17:00 +19°C° 0 mm 2 mps 732 mmHg 37%
    18:00 +18°C° 0 mm 2 mps 732 mmHg 41%
    19:00 +18°C° 0 mm 1 mps 732 mmHg 44%
    20:00 +16°C° 0 mm 1 mps 732 mmHg 47%
    21:00 +15°C° 0 mm 1 mps 732 mmHg 50%
    22:00 +13°C° 0 mm 0 mps 732 mmHg 51%
    23:00 +13°C° 0 mm 0 mps 732 mmHg 51%

    Day after tomorrow, 23 March, Saturday

    Time Temperature Precipitation Wind Pressure Humidity
    00:00 +12°C° 0 mm 0 mps 732 mmHg 52%
    01:00 +13°C° 0 mm 1 mps 732 mmHg 52%
    02:00 +13°C° 0 mm 1 mps 732 mmHg 51%
    03:00 +13°C° 0 mm 1 mps 732 mmHg 51%
    04:00 +13°C° 0 mm 2 mps 732 mmHg 51%
    05:00 +13°C° 0 mm 2 mps 732 mmHg 51%
    06:00 +13°C° 0 mm 2 mps 732 mmHg 51%
    07:00 +14°C° 0 mm 2 mps 732 mmHg 50%
    08:00 +14°C° 0 mm 3 mps 733 mmHg 49%
    09:00 +16°C° 0 mm 3 mps 733 mmHg 48%
    10:00 +17°C° 0 mm 3 mps 733 mmHg 44%
    11:00 +18°C° 0 mm 3 mps 732 mmHg 40%
    12:00 +20°C° 0 mm 2 mps 732 mmHg 36%
    13:00 +21°C° 0 mm 3 mps 732 mmHg 34%
    14:00 +21°C° 0 mm 3 mps 731 mmHg 31%
    15:00 +22°C° 0 mm 3 mps 731 mmHg 29%
    16:00 +20°C° 0 mm 4 mps 731 mmHg 37%
    17:00 +19°C° 0 mm 5 mps 731 mmHg 45%
    18:00 +16°C° 0 mm 6 mps 730 mmHg 52%
    19:00 +17°C° 0 mm 4 mps 730 mmHg 55%
    20:00 +16°C° 0 mm 2 mps 731 mmHg 58%
    21:00 +15°C° 0 mm 1 mps 731 mmHg 61%
    22:00 +15°C° 0.1 mm 2 mps 730 mmHg 62%
    23:00 +13°C° 0.1 mm 4 mps 730 mmHg 63%

    24 March, Sunday

    Time Temperature Precipitation Wind Pressure Humidity
    00:00 +13°C° 0.1 mm 5 mps 729 mmHg 65%
    01:00 +13°C° 0 mm 5 mps 729 mmHg 65%
    02:00 +13°C° 0 mm 5 mps 729 mmHg 64%
    03:00 +12°C° 0 mm 4 mps 728 mmHg 64%
    04:00 +12°C° 0.2 mm 4 mps 728 mmHg 66%
    05:00 +12°C° 0.2 mm 4 mps 728 mmHg 68%
    06:00 +12°C° 0.2 mm 5 mps 727 mmHg 70%
    07:00 +12°C° 0.4 mm 5 mps 727 mmHg 70%
    08:00 +11°C° 0.4 mm 6 mps 727 mmHg 70%
    09:00 +12°C° 0.4 mm 7 mps 727 mmHg 71%
    10:00 +14°C° 0.2 mm 7 mps 726 mmHg 63%
    11:00 +16°C° 0.2 mm 7 mps 726 mmHg 56%
    12:00 +18°C° 0.2 mm 7 mps 726 mmHg 49%
    13:00 +18°C° 0.2 mm 8 mps 725 mmHg 51%
    14:00 +17°C° 0.2 mm 8 mps 724 mmHg 54%
    15:00 +17°C° 0.2 mm 8 mps 723 mmHg 57%
    16:00 +16°C° 2.1 mm 8 mps 723 mmHg 63%
    17:00 +15°C° 2.1 mm 9 mps 722 mmHg 70%
    18:00 +13°C° 2.1 mm 9 mps 722 mmHg 76%
    19:00 +13°C° 1.3 mm 9 mps 722 mmHg 78%
    20:00 +12°C° 1.3 mm 9 mps 723 mmHg 80%
    21:00 +12°C° 1.3 mm 9 mps 723 mmHg 81%
    22:00 +12°C° 1.4 mm 8 mps 723 mmHg 83%
    23:00 +11°C° 1.4 mm 7 mps 723 mmHg 85%

    25 March, Monday

    Time Temperature Precipitation Wind Pressure Humidity
    00:00 +11°C° 1.4 mm 6 mps 722 mmHg 87%
    01:00 +11°C° 2 mm 6 mps 722 mmHg 88%
    02:00 +12°C° 2 mm 5 mps 722 mmHg 88%
    03:00 +10°C° 2 mm 5 mps 722 mmHg 89%
    04:00 +10°C° 1.4 mm 5 mps 722 mmHg 89%
    05:00 +10°C° 1.4 mm 6 mps 722 mmHg 88%
    06:00 +10°C° 1.4 mm 6 mps 722 mmHg 88%
    07:00 +11°C° 0.7 mm 6 mps 722 mmHg 84%
    08:00 +13°C° 0.7 mm 6 mps 722 mmHg 81%
    09:00 +13°C° 0.7 mm 6 mps 722 mmHg 77%
    10:00 +13°C° 0.5 mm 6 mps 722 mmHg 78%
    11:00 +14°C° 0.5 mm 6 mps 722 mmHg 79%
    12:00 +14°C° 0.5 mm 5 mps 722 mmHg 79%
    13:00 +13°C° 1 mm 5 mps 721 mmHg 81%
    14:00 +13°C° 1 mm 5 mps 721 mmHg 82%
    15:00 +13°C° 1 mm 4 mps 721 mmHg 83%
    16:00 +13°C° 0.9 mm 4 mps 721 mmHg 84%
    17:00 +12°C° 0.9 mm 3 mps 721 mmHg 85%
    18:00 +13°C° 0.9 mm 2 mps 721 mmHg 86%
    19:00 +13°C° 0.4 mm 2 mps 721 mmHg 86%
    20:00 +13°C° 0.4 mm 2 mps 722 mmHg 86%
    21:00 +13°C° 0.4 mm 2 mps 723 mmHg 87%
    22:00 +12°C° 0.4 mm 2 mps 723 mmHg 88%
    23:00 +12°C° 0.4 mm 2 mps 723 mmHg 89%

    26 March, Tuesday

    Time Temperature Precipitation Wind Pressure Humidity
    00:00 +10°C° 0.4 mm 3 mps 723 mmHg 91%
    01:00 +10°C° 0.3 mm 2 mps 723 mmHg 91%
    02:00 +10°C° 0.3 mm 2 mps 723 mmHg 92%
    03:00 +10°C° 0.3 mm 1 mps 723 mmHg 92%
    04:00 +10°C° 0.2 mm 1 mps 723 mmHg 92%
    05:00 +10°C° 0.2 mm 1 mps 724 mmHg 91%
    06:00 +10°C° 0.2 mm 1 mps 724 mmHg 90%
    07:00 +11°C° 0.1 mm 1 mps 724 mmHg 86%
    08:00 +12°C° 0.1 mm 1 mps 724 mmHg 82%
    09:00 +13°C° 0.1 mm 1 mps 724 mmHg 77%
    10:00 +14°C° 0 mm 1 mps 724 mmHg 71%
    11:00 +16°C° 0 mm 1 mps 725 mmHg 64%
    12:00 +17°C° 0 mm 2 mps 725 mmHg 57%
    13:00 +18°C° 0 mm 2 mps 725 mmHg 53%
    14:00 +18°C° 0 mm 3 mps 725 mmHg 50%
    15:00 +19°C° 0 mm 4 mps 725 mmHg 46%
    16:00 +19°C° 0 mm 3 mps 725 mmHg 49%
    17:00 +18°C° 0 mm 3 mps 726 mmHg 52%
    18:00 +17°C° 0 mm 3 mps 726 mmHg 55%
    19:00 +16°C° 0 mm 3 mps 727 mmHg 60%
    20:00 +14°C° 0 mm 4 mps 728 mmHg 65%
    21:00 +12°C° 0 mm 4 mps 729 mmHg 69%
    22:00 +12°C° 0 mm 5 mps 729 mmHg 72%
    23:00 +10°C° 0 mm 5 mps 729 mmHg 76%
    Show more